Regional Weather Roundup
Issued by NWS Upton, NY

Current Version | Previous Version | Graphics & Text | Print | Product List | Glossary Off
Versions: 1 2 3 4 5 6 7 8 9 10 11 12 13 14 15 16 17 18 19 20 21 22 23 24 25 26 27 28 29 30 31 32 33 34 35 36 37 38 39 40 41 42 43 44 45 46 47

000
ASUS41 KOKX 192205
RWROKX

REGIONAL WEATHER ROUNDUP
NATIONAL WEATHER SERVICE NEW YORK NY
600 PM EDT FRI SEP 19 2014

NOTE: "FAIR" INDICATES FEW OR NO CLOUDS BELOW 12,000 FEET WITH NO
SIGNIFICANT WEATHER AND/OR OBSTRUCTIONS TO VISIBILITY.

NYZ071-072-176-178-NJZ106-104-192300-
NEW YORK CITY METRO AREA


CITY           SKY/WX    TMP DP  RH WIND       PRES   REMARKS
CENTRAL PARK   SUNNY     63  44  50 VRB7      30.36S
LAGUARDIA APRT MOSUNNY   65  47  52 E12       30.33S
KENNEDY INTL   MOSUNNY   63  47  55 E14       30.35S
NEWARK/LIBERTY MOSUNNY   63  49  60 SE9       30.34R
BRNX BOT. GARD   N/A     61  45  55 CALM      30.36R
TETERBORO      SUNNY     64  44  48 E5        30.33R
$$

NYZ177-179-078>081-192300-
LONG ISLAND NEW YORK

CITY           SKY/WX    TMP DP  RH WIND       PRES   REMARKS
FARMINGDALE    CLEAR     61  46  57 SE12      30.35S
ISLIP          PTCLDY    60  44  55 SE12      30.34S
SHIRLEY        CLEAR     60  44  55 SE7       30.36S
WESTHAMPTON    CLEAR     60  41  49 SE7       30.38R
MONTAUK POINT    N/A     59  42  53 VRB6      30.38F
$$

NYZ052-065-067-192300-
HUDSON VALLEY

CITY           SKY/WX    TMP DP  RH WIND       PRES   REMARKS
WHITE PLAINS   CLEAR     60  42  51 SE5       30.34S
NEWBURGH       MOSUNNY   63  45  51 SE6       30.33F
MONTGOMERY       N/A     64  44  48 SE7       30.31F
POUGHKEEPSIE   CLEAR     62  42  47 SE5       30.32S
ALBANY         PTCLDY    60  38  43 S7        30.32F
$$

NJZ001-105-106-008-010-013-015-019>022-104-192300-
NEW JERSEY

CITY           SKY/WX    TMP DP  RH WIND       PRES   REMARKS
NEWARK/LIBERTY MOSUNNY   63  49  60 SE9       30.34R
TETERBORO      SUNNY     64  44  48 E5        30.33R
CALDWELL       CLOUDY    63  47  55 S9        30.33S
MORRISTOWN     MOSUNNY   64  50  59 S9        30.33S
SOMERVILLE     SUNNY     64  48  56 S9        30.31S
LINDEN         FAIR      67  52  57 S9        30.35S
SUSSEX         MOSUNNY   65  45  48 SE7       30.31S
ANDOVER          N/A     62  47  57 VRB3      30.31F
TRENTON        MOSUNNY   62  50  64 SE9       30.32S
MILLVILLE      SUNNY     66  55  67 E14       30.31R
ATLANTIC CITY  MOSUNNY   65  57  75 NE9       30.32S
WRIGHTSTOWN    CLOUDY    62  53  73 E10       30.31S
TOMS RIVER     CLOUDY    61  54  77 CALM      30.35R
BELMAR         CLOUDY    61  48  63 E9        30.34S
$$

PAZ047>061-062-071-192300-
EASTERN PENNSYLVANIA

CITY           SKY/WX    TMP DP  RH WIND       PRES   REMARKS
PHILADELPHIA   MOSUNNY   65  53  65 SE13      30.32S
ALLENTOWN      PTSUNNY   68  47  46 SE12      30.29F
SCRANTON       SUNNY     66  46  48 S8        30.27F
$$

CTZ002-004>006-009-010-012-RIZ004-006-007-MAZ004-011-015-192300-
SOUTHERN NEW ENGLAND
 IN CT

CITY           SKY/WX    TMP DP  RH WIND       PRES   REMARKS
BRADLEY INTL   CLEAR     62  35  36 N5        30.34F
HARTFORD       CLEAR     62  37  39 SE9       30.35S
DANBURY        CLEAR     59  43  55 SE8       30.35S
WTRBRY/OXFORD  CLEAR     61  37  41 S6        30.35F
BRIDGEPORT     CLEAR     62  43  49 SE8       30.35S
MERIDEN        CLEAR     61  41  47 S9        30.35S
NEW HAVEN      CLEAR     63  41  44 E6        30.36S
CHESTER        FAIR      57  41  54 SE7       30.37R
GROTON         CLEAR     58  43  57 SE13      30.37R
WILLIMANTIC    CLEAR     60  33  36 CALM      30.37R

 IN RI

CITY           SKY/WX    TMP DP  RH WIND       PRES   REMARKS
PROVIDENCE     PTCLDY    57  35  43 E8        30.40R
BLOCK ISLAND   CLEAR     57  39  51 E8        30.38R
WESTERLY       CLEAR     58  40  51 E13       30.38R

 IN MA

CITY           SKY/WX    TMP DP  RH WIND       PRES   REMARKS
BOSTON         PTCLDY    53  30  41 E8        30.41S
WORCESTER      CLEAR     53  34  48 E7        30.37S
WESTFIELD      CLEAR     60  35  39 SW3       30.36R
PROVINCETOWN   CLEAR     54  34  47 E8        30.41S
NANTUCKET      CLEAR     55  36  48 NE9       30.38R
$$

ANZ330-335-338-340-345-350-353-355-192300-
COASTAL MARINE OBSERVATIONS


STATION/POSITION TIME  SKY/WX   TEMP    WIND        PRES    VSBY  WAVE
                                AIR SEA DIR/SP/G                  HT/PER
                 (UTC)          (F)     (DEG/KT/KT) (MB)    (MI)  (FT/S)
NY HARB ENTRANCE 2200            62 70  110/ 14/ 16 1027.5          4/ 5
4S FIRE IS       2200               70                N/A           4/ 6
20S FIRE ISLAND  2100            60 67   60/ 17/ 21 1028.0          5/ 7
23SW MTP         2100                                 N/A           4/ 6
HUDSON CANYON    2200            64 72   70/ 17/ 21 1026.4          6/ 7
EXECUTION ROCKS  2100            66 70   60/  8/ 14   N/A
WESTERN LI SOUND 2200            62      90/  6/ 10   N/A           1/ 4
CENTRAL LI SOUND 2100            60 70  120/ 10/ 12   N/A
EASTERN LI SOUND 2100            64 68  120/ 14/ 17   N/A
ROBBINS REEF     2200            62     150/ 13/ 16 1026.1
$$


>>>>>>>>>>>>>>>>>>>>>>>>>>>> KEY <<<<<<<<<<<<<<<<<<<<<<<<<<<
>                                                          <
>     SKY/WX - SKY CONDITION/PRESENT WEATHER               <
>     TMP    - TEMPERATURE IN FAHRENHEIT                   <
>     DP     - DEWPOINT IN FAHRENHEIT                      <
>     RH     - RELATIVE HUMIDITY IN PERCENT                <
>     WIND   - DIRECTION AND SPEED IN MPH                  <
>     PRES   - MEAN SEA LEVEL PRESSURE IN INCHES OF HG     <
>     WCI    - WIND CHILL INDEX                            <
>     VSB    - VISIBILITY IN MILES                         <
>     HX     - HEAT INDEX                                  <
>     TC     - TEMPERATURE IN CELSIUS                      <
>     VRB    - VARIABLE WIND DIRECTION                     <
>                                                          <
>>>>>>>>>>>>>>>>>>>>>>>>>>>> KEY <<<<<<<<<<<<<<<<<<<<<<<<<<<





USA.gov is the U.S. government's official web portal to all federal, state and local government web resources and services.